Terminal Aerodrome Forecast
Issued by NWS

Current Version | Previous Version | Graphics & Text | Print | Product List | Glossary On
Versions: 1 2 3 4 5 6 7 8 9 10 11 12 13 14 15 16 17 18 19 20 21 22
201
FTUS41 KRLX 212334
TAFCKB
TAF
KCKB 212334Z 2200/2224 26004KT P6SM BKN050
     FM220700 34010KT P6SM SCT080
     FM221100 35008KT P6SM SCT045=

USA.gov is the U.S. government's official web portal to all federal, state and local government web resources and services.